| time (UTC) | temp F | wind direction | speed knots | gust knots | rain 1hr in | rain 24hr in | rain mn in | humidity % | barometer mb |
| 20260504213518 | 68 | 297 | 7.0 | 15.6 | 259.92 | 0.00 | 0.00 | ||
| 20260504213018 | 68 | 309 | 6.1 | 13.9 | 259.92 | 0.00 | 0.00 | ||
| 20260504212518 | 69 | 281 | 4.3 | 7.8 | 259.92 | 0.00 | 0.00 | ||
| 20260504211018 | 68 | 293 | 3.5 | 8.7 | 259.92 | 0.00 | 0.00 | ||
| 20260504205518 | 69 | 269 | 4.3 | 12.2 | 259.92 | 0.00 | 0.00 | ||
| 20260504202519 | 70 | 274 | 5.2 | 11.3 | 259.92 | 0.00 | 0.00 | ||
| 20260504202018 | 69 | 301 | 7.8 | 16.5 | 259.92 | 0.00 | 0.00 | ||
| 20260504201518 | 69 | 288 | 7.8 | 16.5 | 259.92 | 0.00 | 0.00 | ||
| 20260504201018 | 70 | 311 | 7.0 | 16.5 | 259.92 | 0.00 | 0.00 | ||
| 20260504200518 | 70 | 304 | 6.1 | 12.2 | 259.92 | 0.00 | 0.00 | ||
| 20260504200018 | 70 | 280 | 7.0 | 13.9 | 259.92 | 0.00 | 0.00 | ||
| 20260504195518 | 69 | 330 | 6.1 | 14.8 | 259.92 | 0.00 | 0.00 | ||
| 20260504194518 | 69 | 281 | 3.5 | 11.3 | 259.92 | 0.00 | 0.00 | ||
| 20260504193518 | 67 | 290 | 4.3 | 9.6 | 259.92 | 0.00 | 0.00 | ||
| 20260504184019 | 68 | 315 | 4.3 | 15.6 | 259.92 | 0.00 | 0.00 | ||
| 20260504183518 | 68 | 312 | 3.5 | 11.3 | 259.92 | 0.00 | 0.00 | ||
| 20260504181518 | 63 | 319 | 5.2 | 12.2 | 259.92 | 0.00 | 0.00 | ||
| 20260504175518 | 62 | 281 | 7.0 | 16.5 | 259.92 | 0.00 | 0.00 | ||
| 20260504174518 | 62 | 318 | 7.0 | 16.5 | 259.92 | 0.00 | 0.00 | ||
| 20260504173518 | 62 | 319 | 7.8 | 17.4 | 259.92 | 0.00 | 0.00 | ||
| 20260504172518 | 62 | 293 | 7.0 | 19.1 | 259.92 | 0.00 | 0.00 | ||
| 20260504171018 | 63 | 256 | 7.8 | 18.2 | 259.92 | 0.00 | 0.00 | ||
| 20260504151018 | 68 | 249 | 8.7 | 18.2 | 259.92 | 0.00 | 0.00 | ||
| 20260504110518 | 45 | 222 | 2.6 | 5.2 | 259.92 | 0.00 | 0.00 | ||
| 20260504100518 | 42 | 308 | 3.5 | 6.1 | 259.92 | 0.00 | 0.00 | ||
| 20260504081518 | 43 | 276 | 6.1 | 11.3 | 259.92 | 0.00 | 0.00 | ||
| 20260504050519 | 41 | 278 | 4.3 | 8.7 | 259.92 | 0.00 | 0.00 | ||
| 20260504050018 | 41 | 280 | 4.3 | 11.3 | 259.92 | 0.00 | 0.00 | ||
| 20260504045518 | 41 | 270 | 4.3 | 9.6 | 259.92 | 0.00 | 0.00 | ||
| 20260504045019 | 41 | 294 | 4.3 | 8.7 | 259.92 | 0.00 | 0.00 | ||
| 20260504044519 | 41 | 281 | 4.3 | 9.6 | 259.92 | 0.00 | 0.00 | ||
| 20260504044019 | 41 | 267 | 4.3 | 9.6 | 259.92 | 0.00 | 0.00 | ||
| 20260504042518 | 40 | 280 | 5.2 | 9.6 | 259.92 | 0.00 | 0.00 | ||
| 20260504042019 | 40 | 291 | 3.5 | 9.6 | 259.92 | 0.00 | 0.00 | ||
| 20260504041519 | 41 | 270 | 4.3 | 7.8 | 259.92 | 0.00 | 0.00 | ||
| 20260504040018 | 40 | 276 | 4.3 | 10.4 | 259.92 | 0.00 | 0.00 | ||
| 20260504035019 | 40 | 291 | 5.2 | 13.0 | 259.92 | 0.00 | 0.00 | ||
| 20260504034518 | 40 | 263 | 5.2 | 9.6 | 259.92 | 0.00 | 0.00 | ||
| 20260504033019 | 40 | 262 | 5.2 | 11.3 | 259.92 | 0.00 | 0.06 | ||
| 20260504032518 | 40 | 309 | 5.2 | 13.0 | 259.92 | 0.00 | 0.06 | ||
| 20260504031019 | 41 | 284 | 4.3 | 9.6 | 259.92 | 0.00 | 0.06 | ||
| 20260504025519 | 40 | 290 | 3.5 | 10.4 | 259.92 | 0.00 | 0.06 | ||
| 20260504025019 | 40 | 260 | 2.6 | 5.2 | 259.92 | 0.00 | 0.06 | ||
| 20260504021519 | 42 | 311 | 2.6 | 7.8 | 259.92 | 0.00 | 0.06 | ||
| 20260504020019 | 41 | 266 | 2.6 | 6.1 | 259.92 | 0.00 | 0.06 | ||
| 20260504014519 | 42 | 301 | 2.6 | 7.0 | 259.92 | 0.00 | 0.06 | ||
| 20260504014019 | 43 | 316 | 2.6 | 7.0 | 259.92 | 0.00 | 0.06 | ||
| 20260504013019 | 42 | 309 | 3.5 | 9.6 | 259.92 | 0.00 | 0.06 | ||
| 20260504012019 | 42 | 298 | 4.3 | 11.3 | 259.92 | 0.00 | 0.06 | ||
| 20260504011019 | 43 | 316 | 5.2 | 11.3 | 259.92 | 0.00 | 0.06 | ||
| 20260504010019 | 43 | 322 | 4.3 | 11.3 | 259.92 | 0.00 | 0.06 | ||
| 20260504004519 | 42 | 297 | 3.5 | 13.0 | 259.92 | 0.00 | 0.06 | ||
| 20260504004019 | 43 | 305 | 3.5 | 10.4 | 259.92 | 0.00 | 0.06 | ||
| 20260504003019 | 43 | 291 | 1.7 | 7.0 | 259.92 | 0.00 | 0.06 | ||
| 20260504001019 | 43 | 339 | 2.6 | 8.7 | 259.92 | 0.00 | 0.06 | ||
| 20260503235520 | 43 | 260 | 1.7 | 9.6 | 259.92 | 0.00 | 0.06 | ||
| 20260503235019 | 44 | 269 | 3.5 | 8.7 | 259.92 | 0.00 | 0.06 | ||
| 20260503234019 | 44 | 328 | 2.6 | 9.6 | 259.92 | 0.00 | 0.06 | ||
| 20260503233019 | 45 | 315 | 3.5 | 9.6 | 259.92 | 0.00 | 0.06 | ||
| 20260503232519 | 45 | 328 | 3.5 | 10.4 | 259.92 | 0.00 | 0.06 | ||
| 20260503232019 | 45 | 270 | 5.2 | 12.2 | 259.92 | 0.00 | 0.06 | ||
| 20260503231019 | 45 | 269 | 5.2 | 18.2 | 259.92 | 0.00 | 0.06 | ||
| 20260503230519 | 46 | 322 | 6.1 | 15.6 | 259.92 | 0.00 | 0.06 | ||
| 20260503225019 | 47 | 301 | 3.5 | 9.6 | 259.92 | 0.00 | 0.06 | ||
| 20260503223519 | 46 | 325 | 2.6 | 10.4 | 259.92 | 0.00 | 0.06 | ||
| 20260503221019 | 48 | 290 | 5.2 | 13.0 | 259.92 | 0.00 | 0.06 | ||
| 20260503220019 | 48 | 293 | 5.2 | 16.5 | 259.92 | 0.00 | 0.06 | ||
| 20260503215519 | 49 | 245 | 3.5 | 11.3 | 259.92 | 0.00 | 0.06 |